Погода в Ершове

Хотите узнать прогноз погоды в Ершове? Тогда Вам сюда: Погода в Ершове

Поиск расширенной информации на нашем сайте:

Полезная информация:

Новости сайта



02.01.2020
Опубликован Долгосрочный прогноз погоды по городам России и ближнего зарубежья на январь 2020 года.
Карты: Прогноз на январь и февраль 2020 года, Сравнение прогнозируемой аномалии приземной температуры воздуха на январь 2020 года по разным моделям.




Погода в Ершове - сегодня

Время (UTC), дата Ветер
(°,м/с) 
Видим.   Явления Облачность Т
(°С)
Тd
(°С)
f(%) Тe
(°С)
Pmin
(гПа)
dP
(гПа)
Po
(мм)
O2
(г/м3)
Тmin Tmax R s Состояние
почвы
15 24.02.21 310 (СЗ) 5{12}  30000 м    4/0 верхняя 
[Ci fib]
-18.8 -24.8 59 -25  1036.2  0.6  766  333    -17.9       
18 24.02.21 310 (СЗ) 4{10}  30000 м    ясно 
-20.8 -25.4 66 -26  1036.9  0.3  766  336           
21 24.02.21 310 (СЗ) 30000 м    5/0 верхняя 
[Ci fib]
-22.4 -26.3 71 -25  1037  0.3  766  338           
00 25.02.21 300 (СЗ) 30000 м    4/0 верхняя 
[Ci fib]
-24.2 -27.2 76 -27  1036.8  -0.2  766  340           
03 25.02.21 230 (ЮЗ) 30000 м    4/0 верхняя 
[Ci fib]
-26.9 -29.5 78 -32  1036.7  -0.3  766  344  -27.5      34  равномерный
сухой снег
100% 
06 25.02.21 200 (Ю) 20000 м    10/0 верхняя 
[Cs]
-22.5 -25.6 76 -27  1035.5  -0.7  765  338           
09 25.02.21 200 (Ю) 20000 м    9/0 средняя, верхняя 
[As op|Cs]
-17 -21 71 -23  1032.1  -3  763  329           
12 25.02.21 190 (Ю) 8-11{12}  4000 м  снег  10/10 600 м 
[Ns]
-15.2 -17 86 -23  1027.9  -4  760  326           
15 25.02.21 190 (Ю) 10-13{15}  2300 м  слаб. снег  10/10 540 м 
[Ns]
-13.4 -14.7 90 -21  1023.5  -4.2  757  322    -13.4  0.8     
18 25.02.21 200 (Ю) 8-11{14}  2600 м  слаб. снег  10/10 500 м 
[Ns]
-12.5 -13.7 91 -19  1020.4  -3  754  320           
21 25.02.21 210 (ЮЗ) 6{11}  4900 м  слаб. снег  10/10 480 м 
[Ns]
-11.7 -12.8 92 -17  1017.5  -2.9  752  318           
00 26.02.21 220 (ЮЗ) 28000 м  {снег}  10/10 600 м 
[Ns]
-10.7 -11.4 95 -15  1015.7  -1.6  751  316           
03 26.02.21 230 (ЮЗ) 30000 м  {снег}  10/10 120 м 
[St]
-9.6 -10.2 95 -11  1015  -0.7  750  314  -13.4    0.8  32  равномерный
сухой снег
100% 
06 26.02.21 240 (ЮЗ) 4000 м  дымка  10/10 120 м 
[St]
-8.1 -8.7 95 -8  1015.4  0.5  751  313           
09 26.02.21 160 (Ю) 10 км    10/10 570 м 
[Sc]
-6.1 -6.8 95 -8  1015.1  -0.2  751  310           
12 26.02.21 160 (Ю) 4000 м  слаб. снег  10/10 500 м 
[Ns]
-5.8 -6.4 96 -9  1014.5  -0.6  750  310           
15 26.02.21 150 (ЮВ) 3300 м  снег  10/10 570 м 
[Ns]
-6.1 -6.5 97 -11  1012.5  -2  749  309    -5.5  0.6     
18 26.02.21 180 (Ю) 8-12{13}  5000 м  слаб. снег  10/10 540 м 
[Ns]
-2.9 -4.3 90 -8  1007.4  -4.8  745  304           
21 26.02.21 230 (ЮЗ) 8-11{12}  0300 м  слаб. морось{снег}  ?/?  
[]
+0.7 -0.1 94 -3  1003.7  -3.5  743  298           
00 27.02.21 280 (З) 6{11}  7000 м  дымка{снег, морось}  10/10 270 м 
[St]
+2.3 +1.4 94 -1  1002.7  -0.9  742  296           
03 27.02.21 270 (З) 6{11}  18000 м  {дождь}  9/0 верхняя 
[Cs]
+1.9 +0.7 92 -1  1002.2  -0.6  741  297  -6.1    30  равномерный
мокрый или
старый снег
100% 
06 27.02.21 240 (ЮЗ) 4000 м  дымка{дождь}  9/9 750 м 
[Sc]
+0.9 +0.5 97 -1  1002.3  0.1  741  298           
09 27.02.21 250 (З) 7-10{12}  4000 м  дымка  10/10 330 м 
[Frnb|Ns]
+1.6 +0.7 94 -2  1002.1  -0.2  741  297           
12 27.02.21 250 (З) 7-11{11}  20000 м    10/10 800 м 
[Sc]
+1.5 +0.6 94 -2  1001.4  -0.6  741  297           
15 27.02.21 250 (З) 7-10{11}  26000 м    9/9 720 м 
[Sc]
+1.1 +0.1 93 -3  1001.3  0.1  741  297    +1.9       
Время (UTC), дата Ветер
(°,м/с) 
Видим.   Явления Облачность Т
(°С)
Тd
(°С)
f(%) Тe
(°С)
Pmin
(гПа)
dP
(гПа)
Po
(мм)
O2
(г/м3)
Тmin Tmax R s Состояние
почвы

Для получения пояснительной информации подведите курсор к названию столбца.

ПОГОДА в Ершове - архив

Всё, что Вы хотите узнать о погоде в Ершове - удобно и подробно!

Выберите нужную дату (начиная с 1 января 2019* года) и нажмите кнопку "Найти".
Будут отображены архивные сводки погоды по пункту Ершов, начиная с указанной даты.


Отображать данные в формате CSV (для использования в таблицах Excel)


Внимание! Наш архив погоды предназначен исключительно для личного некоммерческого использования в познавательных целях. Если Вам необходимы официальные справки о состоянии погоды (для производственных, юридических, коммерческих и т.п. целей), обращайтесь в органы Росгидромета.

*Примечание: данная дата относится к архиву по метеостанциям СССР (Россия, СНГ, Балтия).
Архив по метеостанциям Зарубежной Европы и Азии (кроме Китая) хранится 10 дней, по другим регионам земного шара (Китай, Африка, Америка, Австралия, Океания) - 1 день.

Ершов - район местоположения метеостанции


Название, широта, долгота, высота метеостанции:
Ершов 51.4°ш. 48.3°д. 111 м над ур. моря [Российская Федерация]

Дополнительная информация

В oтличие oт бoльшинства пoгoдных сайтoв мы публикуем пoдрoбную метеoинфoрмацию в детальнoм прoфессиoнальнoм фoрмате.

Характеристики температуры и влажнoсти вoздуха измеряются на высoте 2 м в тени вдали oт зданий и деревьев.
Скoрoсть ветра измеряется на высoте 10 м (на урoвне рoста челoвека скoрoсть ветра ниже в 1.5-2 раза). Если метеoстанция нахoдится в гoрoде или в лесу, тo скoрoсть ветра занижена на 2-4 м/с пo сравнению с oткрытым местoм. Скoрoсть ветра над акватoриями крупных рек и oзёр, а также на вершинах хoлмoв на 2-5 м/с выше, чем в oбычных услoвиях.
Атмoсфернoе давление в разных тoчках местнoсти мoжет значительнo oтличаться oт давления на метеoстанции, в зависимoсти oт услoвий рельефа (при пoдъёме на 10 м давление пoнижается примернo на 1 мм рт.ст.).